EW8073 Weather Reports


time (UTC)temp
C
wind
direction
speed
KPH
gust
KPH
rain 1hr
cm
rain 24hr
cm
rain mn
cm
humidity
%
barometer
mb
20260508033624 14 101 0.0 0.0 0.00 0.00 0.00 53 1013.6
20260508033118 15 101 0.0 0.0 0.00 0.00 0.00 51 1013.6
20260508032612 15 101 0.0 6.4 0.00 0.00 0.00 50 1013.7
20260508032105 15 101 1.6 8.0 0.00 0.00 0.00 49 1013.4
20260508031600 15 101 1.6 8.0 0.00 0.00 0.00 48 1013.2
20260508031053 15 72 0.0 0.0 0.00 0.00 0.00 47 1013.1
20260508030548 15 346 0.0 0.0 0.00 0.00 0.00 47 1013.0
20260508030042 15 344 0.0 0.0 0.00 0.00 0.00 47 1013.0
20260508025535 15 340 0.0 0.0 0.00 0.00 0.00 45 1012.9
20260508025029 16 340 0.0 0.0 0.00 0.00 0.00 44 1012.7
20260508024523 16 340 0.0 0.0 0.00 0.00 0.00 44 1012.7
20260508024018 16 340 0.0 0.0 0.00 0.00 0.00 43 1012.6
20260508023015 16 340 0.0 0.0 0.00 0.00 0.00 43 1012.5
20260508022516 16 340 0.0 0.0 0.00 0.00 0.00 42 1012.3
20260508022015 16 340 0.0 0.0 0.00 0.00 0.00 42 1012.2
20260508021515 16 340 0.0 0.0 0.00 0.00 0.00 42 1012.0
20260508021012 16 340 0.0 0.0 0.00 0.00 0.00 41 1012.2
20260508020511 16 340 0.0 6.4 0.00 0.00 0.00 41 1012.3
20260508020011 16 340 1.6 8.0 0.00 0.00 0.00 40 1012.3
20260508015510 17 355 1.6 8.0 0.00 0.00 0.00 40 1012.3
20260508015012 17 22 0.0 0.0 0.00 0.00 0.00 40 1012.3
20260508014012 17 36 1.6 8.0 0.00 0.00 0.00 38 1011.9
20260508013507 17 26 0.0 8.0 0.00 0.00 0.00 38 1011.7
20260508013010 17 94 0.0 4.8 0.00 0.00 0.00 37 1011.6
20260508012507 18 96 1.6 6.4 0.00 0.00 0.00 37 1011.6
20260508012007 18 69 3.2 12.9 0.00 0.00 0.00 36 1011.5
20260508010507 19 342 0.0 3.2 0.00 0.00 0.00 32 1011.1
20260508010007 19 342 0.0 3.2 0.00 0.00 0.00 31 1011.0
20260508005506 20 342 0.0 0.0 0.00 0.00 0.00 31 1010.9
20260508005003 20 342 0.0 0.0 0.00 0.00 0.00 31 1010.9
20260508004502 20 342 0.0 0.0 0.00 0.00 0.00 30 1010.8
20260508004002 20 342 0.0 0.0 0.00 0.00 0.00 30 1010.8
20260508003503 20 342 0.0 3.2 0.00 0.00 0.00 30 1010.8
20260508003002 20 342 0.0 3.2 0.00 0.00 0.00 29 1010.6
20260508002502 20 342 0.0 0.0 0.00 0.00 0.00 30 1010.8
20260508002004 20 342 0.0 0.0 0.00 0.00 0.00 29 1010.6
20260508001003 20 342 0.0 0.0 0.00 0.00 0.00 28 1010.6
20260508000457 20 342 0.0 0.0 0.00 0.00 0.00 29 1010.6
20260507235951 20 342 0.0 0.0 0.00 0.00 0.00 29 1010.8
20260507235444 20 342 0.0 0.0 0.00 0.00 0.00 29 1010.6
20260507234938 20 342 0.0 6.4 0.00 0.00 0.00 28 1010.8
20260507233931 20 341 0.0 4.8 0.00 0.00 0.00 26 1010.6
20260507232426 20 277 1.6 4.8 0.00 0.00 0.00 26 1010.8
20260507231926 20 277 1.6 8.0 0.00 0.00 0.00 26 1010.8
20260507231422 20 297 3.2 8.0 0.00 0.00 0.00 26 1010.8
20260507230422 21 293 3.2 9.7 0.00 0.00 0.00 24 1011.0
20260507225922 21 308 0.0 8.0 0.00 0.00 0.00 24 1011.0
20260507225423 21 330 0.0 8.0 0.00 0.00 0.00 24 1011.0
20260507224420 22 294 3.2 11.3 0.00 0.00 0.00 23 1011.0
20260507223918 22 259 4.8 19.3 0.00 0.00 0.00 24 1011.1
20260507222418 22 313 4.8 17.7 0.00 0.00 0.00 23 1011.1
20260507221918 22 278 4.8 12.9 0.00 0.00 0.00 24 1011.1
20260507221416 22 200 4.8 12.9 0.00 0.00 0.00 24 1011.2
20260507220411 22 230 6.4 14.5 0.00 0.00 0.00 25 1011.2
20260507215400 21 355 3.2 12.9 0.00 0.00 0.00 26 1011.5
20260507214854 20 257 3.2 11.3 0.00 0.00 0.00 27 1011.6
20260507214348 20 244 4.8 17.7 0.00 0.00 0.00 27 1011.7
20260507213842 20 216 4.8 17.7 0.00 0.00 0.00 25 1011.8
20260507212830 21 225 6.4 17.7 0.00 0.00 0.00 25 1011.9
20260507212324 21 254 6.4 19.3 0.00 0.00 0.00 25 1011.9
20260507211818 22 291 6.4 19.3 0.00 0.00 0.00 26 1012.0
20260507211312 22 280 6.4 16.1 0.00 0.00 0.00 24 1012.0
20260507210806 22 247 6.4 16.1 0.00 0.00 0.00 26 1012.2
20260507210300 22 263 6.4 17.7 0.00 0.00 0.00 25 1012.2
20260507205755 21 296 6.4 19.3 0.00 0.00 0.00 26 1012.2
20260507205248 22 223 6.4 19.3 0.00 0.00 0.00 25 1012.3
20260507204742 21 355 6.4 17.7 0.00 0.00 0.00 27 1012.3
20260507204236 21 254 6.4 17.7 0.00 0.00 0.00 26 1012.4
20260507203731 21 306 6.4 17.7 0.00 0.00 0.00 25 1012.4
20260507203224 21 234 6.4 14.5 0.00 0.00 0.00 25 1012.5
20260507202718 21 9 6.4 17.7 0.00 0.00 0.00 26 1012.6
20260507202212 21 197 4.8 17.7 0.00 0.00 0.00 26 1012.6
20260507201708 21 9 4.8 14.5 0.00 0.00 0.00 28 1012.7
20260507201200 21 80 6.4 19.3 0.00 0.00 0.00 26 1012.9
20260507200655 21 259 6.4 19.3 0.00 0.00 0.00 27 1012.9
20260507200148 20 251 4.8 16.1 0.00 0.00 0.00 27 1012.9
20260507195642 20 5 4.8 17.7 0.00 0.00 0.00 28 1013.1
20260507195136 20 336 6.4 17.7 0.00 0.00 0.00 28 1013.2
20260507194630 20 226 6.4 17.7 0.00 0.00 0.00 28 1013.2
20260507194125 20 249 6.4 17.7 0.00 0.00 0.00 28 1013.2
20260507193618 20 273 6.4 16.1 0.00 0.00 0.00 30 1013.2
20260507193112 19 250 6.4 17.7 0.00 0.00 0.00 29 1013.1
20260507192606 19 246 8.0 24.1 0.00 0.00 0.00 31 1013.1
20260507192100 19 214 6.4 24.1 0.00 0.00 0.00 29 1013.2
20260507191554 19 334 4.8 17.7 0.00 0.00 0.00 30 1013.2
20260507191047 19 245 4.8 16.1 0.00 0.00 0.00 31 1013.4
20260507190541 19 36 4.8 16.1 0.00 0.00 0.00 30 1013.6
20260507190037 18 257 4.8 17.7 0.00 0.00 0.00 30 1013.6
20260507185531 18 217 3.2 19.3 0.00 0.00 0.00 30 1013.7
20260507185024 18 127 3.2 19.3 0.00 0.00 0.00 33 1013.8
20260507184519 18 242 3.2 8.0 0.00 0.00 0.00 34 1013.8
20260507184012 18 279 4.8 11.3 0.00 0.00 0.00 33 1013.8
20260507183505 18 336 4.8 11.3 0.00 0.00 0.00 33 1013.9
20260507183001 18 286 4.8 17.7 0.00 0.00 0.00 32 1013.9
20260507182454 18 282 4.8 17.7 0.00 0.00 0.00 31 1013.9
20260507181443 18 308 4.8 12.9 0.00 0.00 0.00 33 1014.0
20260507180936 18 333 4.8 16.1 0.00 0.00 0.00 32 1014.0
20260507180431 18 220 4.8 16.1 0.00 0.00 0.00 34 1014.0
20260507175924 18 242 4.8 12.9 0.00 0.00 0.00 35 1013.9
20260507175418 18 242 4.8 12.9 0.00 0.00 0.00 35 1013.9
20260507174407 18 250 3.2 8.0 0.00 0.00 0.00 37 1014.1
20260507172851 17 243 3.2 11.3 0.00 0.00 0.00 36 1014.3
20260507172351 17 248 1.6 8.0 0.00 0.00 0.00 36 1014.4
20260507171852 17 246 1.6 8.0 0.00 0.00 0.00 38 1014.3
20260507171352 17 246 3.2 9.7 0.00 0.00 0.00 38 1014.5
20260507170852 17 244 3.2 12.9 0.00 0.00 0.00 36 1014.4
20260507170353 17 263 3.2 12.9 0.00 0.00 0.00 37 1014.4
20260507165852 16 267 3.2 12.9 0.00 0.00 0.00 36 1014.4
20260507165351 16 248 4.8 14.5 0.00 0.00 0.00 38 1014.4
20260507164848 16 254 4.8 14.5 0.00 0.00 0.00 38 1014.5
20260507164347 16 246 6.4 14.5 0.00 0.00 0.00 38 1014.5
20260507163347 16 243 3.2 9.7 0.00 0.00 0.00 38 1014.6
20260507162847 16 258 3.2 16.1 0.00 0.00 0.00 40 1014.6
20260507162350 16 261 4.8 16.1 0.00 0.00 0.00 39 1014.6
20260507161844 15 249 1.6 11.3 0.00 0.00 0.00 43 1014.7
20260507161343 15 249 1.6 8.0 0.00 0.00 0.00 46 1014.7
20260507160843 14 250 4.8 11.3 0.00 0.00 0.00 46 1014.7
20260507160343 14 265 3.2 12.9 0.00 0.00 0.00 46 1014.8
20260507155844 13 261 3.2 12.9 0.00 0.00 0.00 46 1014.8
20260507155344 13 264 1.6 11.3 0.00 0.00 0.00 47 1014.7
20260507154844 13 213 1.6 6.4 0.00 0.00 0.00 49 1014.8
20260507153340 12 261 3.2 12.9 0.00 0.00 0.00 49 1015.2
20260507152840 11 228 1.6 6.4 0.00 0.00 0.00 51 1015.2
20260507152339 11 228 1.6 6.4 0.00 0.00 0.00 52 1015.2
20260507151840 11 229 1.6 6.4 0.00 0.00 0.00 52 1015.2
20260507151339 11 228 1.6 4.8 0.00 0.00 0.00 54 1015.2
20260507145839 10 220 0.0 4.8 0.00 0.00 0.00 54 1015.3
20260507144337 10 229 1.6 6.4 0.00 0.00 0.00 55 1015.3
20260507143839 9 229 1.6 4.8 0.00 0.00 0.00 58 1015.3
20260507143339 9 229 0.0 3.2 0.00 0.00 0.00 60 1015.3
20260507142838 8 230 0.0 3.2 0.00 0.00 0.00 61 1015.2
20260507142338 8 230 0.0 0.0 0.00 0.00 0.00 63 1015.2
20260507141837 8 230 0.0 0.0 0.00 0.00 0.00 65 1015.2
20260507141335 7 231 0.0 0.0 0.00 0.00 0.00 66 1015.2
20260507140331 7 231 0.0 0.0 0.00 0.00 0.00 65 1015.3
20260507135831 6 231 0.0 0.0 0.00 0.00 0.00 65 1015.2
20260507135332 6 231 0.0 0.0 0.00 0.00 0.00 66 1015.3
20260507134332 6 231 0.0 0.0 0.00 0.00 0.00 66 1015.3
20260507133829 6 231 0.0 0.0 0.00 0.00 0.00 66 1015.3
20260507133331 5 232 0.0 0.0 0.00 0.00 0.00 67 1015.3
20260507132824 5 232 0.0 0.0 0.00 0.00 0.00 69 1015.2
20260507132318 4 232 0.0 0.0 0.00 0.00 0.00 71 1015.3
20260507131812 4 232 0.0 0.0 0.00 0.00 0.00 71 1015.1
20260507131307 4 232 0.0 0.0 0.00 0.00 0.00 70 1015.1
20260507130801 3 232 0.0 0.0 0.00 0.00 0.00 70 1015.0
20260507130255 3 232 0.0 3.2 0.00 0.00 0.00 70 1015.0
20260507125748 3 232 0.0 3.2 0.00 0.00 0.00 70 1015.0
20260507125242 3 232 0.0 3.2 0.00 0.00 0.00 70 1015.0
20260507124230 2 236 0.0 0.0 0.00 0.00 0.00 71 1014.7
20260507123725 2 236 0.0 0.0 0.00 0.00 0.00 72 1014.7
20260507123218 2 236 0.0 0.0 0.00 0.00 0.00 72 1014.6
20260507122713 2 235 0.0 0.0 0.00 0.00 0.00 72 1014.6
20260507122207 2 235 0.0 0.0 0.00 0.00 0.00 72 1014.6
20260507121659 2 235 0.0 0.0 0.00 0.00 0.00 72 1014.5
20260507121153 2 235 0.0 0.0 0.00 0.00 0.00 72 1014.6
20260507120142 2 235 0.0 3.2 0.00 0.00 0.00 72 1014.7
20260507115637 2 235 0.0 3.2 0.00 0.00 0.00 72 1014.6
20260507115131 2 235 0.0 3.2 0.00 0.00 0.00 72 1014.6
20260507114627 2 237 0.0 3.2 0.00 0.00 0.00 72 1014.6
20260507114119 2 237 0.0 3.2 0.00 0.00 0.00 72 1014.6
20260507113613 2 236 0.0 4.8 0.00 0.00 0.00 72 1014.6
20260507113106 2 236 1.6 4.8 0.00 0.00 0.00 72 1014.5
20260507112600 2 236 1.6 4.8 0.00 0.00 0.00 73 1014.5
20260507112054 2 236 1.6 6.4 0.00 0.00 0.00 73 1014.4
20260507111548 2 236 0.0 6.4 0.00 0.00 0.00 73 1014.5
20260507110536 2 236 1.6 6.4 0.00 0.00 0.00 73 1014.4
20260507105524 1 236 0.0 4.8 0.00 0.00 0.00 73 1014.5
20260507105018 1 234 0.0 6.4 0.00 0.00 0.00 73 1014.6
20260507104512 2 233 0.0 6.4 0.00 0.00 0.00 73 1014.6
20260507104006 2 233 0.0 0.0 0.00 0.00 0.00 73 1014.5
20260507103500 2 234 0.0 0.0 0.00 0.00 0.00 73 1014.5
20260507102954 2 234 0.0 0.0 0.00 0.00 0.00 74 1014.5
20260507102448 1 234 0.0 0.0 0.00 0.00 0.00 74 1014.7
20260507101436 1 234 0.0 0.0 0.00 0.00 0.00 75 1015.0
20260507100931 1 234 0.0 0.0 0.00 0.00 0.00 75 1014.8
20260507100424 1 234 0.0 0.0 0.00 0.00 0.00 76 1014.7
20260507094906 1 234 0.0 0.0 0.00 0.00 0.00 76 1015.1
20260507094401 1 233 0.0 0.0 0.00 0.00 0.00 76 1015.2
20260507093855 1 233 0.0 0.0 0.00 0.00 0.00 76 1015.2
20260507092842 1 233 0.0 0.0 0.00 0.00 0.00 77 1015.1
20260507092336 1 233 0.0 0.0 0.00 0.00 0.00 77 1015.1
20260507091325 1 233 0.0 0.0 0.00 0.00 0.00 78 1015.2
20260507090818 1 233 0.0 0.0 0.00 0.00 0.00 78 1015.2
20260507085807 1 233 0.0 0.0 0.00 0.00 0.00 78 1015.2
20260507085301 1 233 0.0 3.2 0.00 0.00 0.00 79 1015.1
20260507084754 1 233 0.0 3.2 0.00 0.00 0.00 79 1015.0
20260507084248 1 233 0.0 1.6 0.00 0.00 0.00 80 1015.1
20260507083742 1 233 0.0 4.8 0.00 0.00 0.00 80 1015.1
20260507083236 1 233 0.0 4.8 0.00 0.00 0.00 81 1015.0
20260507082730 1 238 0.0 0.0 0.00 0.00 0.00 82 1015.1
20260507082224 1 238 0.0 0.0 0.00 0.00 0.00 82 1015.2
20260507081719 1 238 0.0 0.0 0.00 0.00 0.00 83 1015.3
20260507081212 1 238 0.0 0.0 0.00 0.00 0.00 83 1015.2
20260507080200 1 238 0.0 0.0 0.00 0.00 0.00 83 1015.5
20260507075654 1 238 0.0 0.0 0.00 0.00 0.00 83 1015.5
20260507074642 1 238 0.0 0.0 0.00 0.00 0.00 84 1015.5
20260507074134 1 238 0.0 0.0 0.00 0.00 0.00 84 1015.5
20260507073134 1 238 0.0 3.2 0.00 0.00 0.00 84 1015.9
20260507072631 1 238 0.0 4.8 0.00 0.00 0.00 84 1015.8
20260507072130 1 238 1.6 6.4 0.00 0.00 0.00 84 1015.9
20260507071631 1 236 1.6 6.4 0.00 0.00 0.00 84 1015.8
20260507070129 1 239 1.6 6.4 0.00 0.00 0.00 85 1016.0
20260507065638 1 229 1.6 4.8 0.00 0.00 0.00 85 1016.0
20260507065129 1 228 0.0 4.8 0.00 0.00 0.00 85 1016.0
20260507064631 1 228 0.0 3.2 0.00 0.00 0.00 84 1016.0
20260507064125 1 228 0.0 4.8 0.00 0.00 0.00 85 1016.0
20260507063626 1 228 0.0 4.8 0.00 0.00 0.00 84 1016.0
20260507060628 1 227 0.0 6.4 0.00 0.00 0.00 84 1016.2
20260507055620 1 225 0.0 0.0 0.00 0.00 0.00 83 1016.2
20260507055114 1 225 0.0 0.0 0.00 0.00 0.00 83 1016.2
20260507053556 1 225 0.0 0.0 0.00 0.00 0.00 82 1016.4
20260507053049 0 225 0.0 0.0 0.00 0.00 0.00 82 1016.5
20260507052545 0 225 0.0 0.0 0.00 0.00 0.00 81 1016.6
20260507052038 0 225 0.0 0.0 0.00 0.00 0.00 81 1016.6
20260507051532 0 225 0.0 0.0 0.00 0.00 0.00 80 1016.7
20260507051026 0 225 0.0 0.0 0.00 0.00 0.00 80 1016.7
20260507050519 0 225 0.0 0.0 0.00 0.00 0.00 80 1016.7
20260507050014 0 225 0.0 0.0 0.00 0.00 0.00 80 1016.8
20260507045509 0 225 0.0 0.0 0.00 0.00 0.00 80 1016.8
20260507045002 0 225 0.0 0.0 0.00 0.00 0.00 79 1016.7
20260507044455 0 225 0.0 0.0 0.00 0.00 0.00 79 1016.9
20260507043950 1 225 0.0 0.0 0.00 0.00 0.00 79 1016.9
20260507043444 1 225 0.0 0.0 0.00 0.00 0.00 78 1016.9
20260507042938 1 225 0.0 0.0 0.00 0.00 0.00 78 1016.8
20260507042433 1 225 0.0 0.0 0.00 0.00 0.00 77 1016.8
20260507041420 1 225 0.0 0.0 0.00 0.00 0.00 76 1016.8
20260507040914 1 225 0.0 0.0 0.00 0.00 0.00 76 1016.8
20260507040409 1 225 0.0 0.0 0.00 0.00 0.00 76 1016.9
20260507035907 1 225 0.0 0.0 0.00 0.00 0.00 76 1017.2
20260507035408 1 225 0.0 0.0 0.00 0.00 0.00 76 1017.1
20260507034406 1 225 0.0 0.0 0.00 0.00 0.00 76 1017.1
20260507033903 1 225 0.0 0.0 0.00 0.00 0.00 76 1017.1